Regional Weather Roundup
Issued by NWS

Home | Current Version | Previous Version | Graphics & Text | Print | Product List | Glossary On
Versions: 1 2 3 4 5 6 7 8 9 10 11 12 13 14 15 16 17 18 19 20 21 22 23 24 25 26 27 28 29 30 31 32 33 34 35 36 37 38 39 40 41 42 43 44 45 46 47 48 49 50
000
ASUS43 KLOT 230803
RWRIL

ILLINOIS REGIONAL WEATHER ROUNDUP
NATIONAL WEATHER SERVICE CHICAGO/ROMEOVILLE IL
300 AM CDT SAT JUL 23 2016

NOTE: "FAIR" INDICATES FEW OR NO CLOUDS BELOW 12,000 FEET WITH NO
SIGNIFICANT WEATHER AND/OR OBSTRUCTIONS TO VISIBILITY.

* THESE STATIONS ARE NOT UNDER NWS QUALITY CONTROL. THEY ALSO MAY NOT
  REPORT WEATHER SUCH AS PRECIPITATION OR FOG.

ILZ001-002-007-009-015-016-024-230900-
NORTHWEST ILLINOIS

CITY           SKY/WX    TMP DP  RH WIND       PRES   REMARKS
MOLINE         CLEAR     77  74  90 E5        29.97F
STERLING*      MOCLDY    77  76  96 SE5       29.99F
SAVANNA*       PTCLDY    75  74  97 CALM      29.98F
$$

ILZ003-004-008-010-011-017-018-230900-
NORTH CENTRAL ILLINOIS

CITY           SKY/WX    TMP DP  RH WIND       PRES   REMARKS
ROCKFORD       CLEAR     77  74  90 CALM      30.00F
FREEPORT*      CLEAR     73  72  97 CALM      30.01S
ROCHELLE*      PTCLDY    72  72 100 CALM      30.01S FOG
DE KALB*       CLEAR     76  74  95 CALM      30.01F
$$

ILZ005-006-012>014-019>023-230900-
NORTHEAST ILLINOIS

CITY           SKY/WX    TMP DP  RH WIND       PRES   REMARKS
CHICAGO-OHARE  PTCLDY    80  76  87 W3        29.98F HX  86
CHICAGO-MIDWAY PTCLDY    81  75  82 W6        29.98F HX  87
AURORA         PTCLDY    76  74  93 CALM      29.99F
LANSING*       PTCLDY    75  72  91 S3        29.99F
WAUKEGAN       PTCLDY    78  75  90 CALM      29.98S HX  81
DUPAGE AIRPORT PTCLDY    77  75  93 CALM      29.99F
WHEELING       CLEAR     80  75  84 CALM      29.99F HX  85
MORRIS*        CLOUDY    77  75  93 CALM      29.98F
NORTHERLY ISL    N/A     81  74  79 W3          N/A  HX  86
$$

LMZ740>746-230900-
SOUTHERN LAKE MICHIGAN

STATION/POSITION SKY/WX   TEMP    WIND        PRES    VSBY  WAVE
                          AIR SEA DIR/SP/G                  HT/PER
                          (F)     (DEG/KT/KT) (MB)    (MI)  (FT/S)
SOUTHERN BUOY              74 73  210/  6/  6 1014.8          0
WILMETTE HARBOR            77 72   CALM  /  2   N/A           0
HARRISON CRIB              84     270/  9/  9   N/A
BURNHAM HARBOR             81     250/  3/  7   N/A
CALUMET HARBOR             80     240/  2/  5 1015.0F
BURNS HARBOR               79     220/  7/ 15 1015.9S
MICHIGAN CITY              78     180/  7/  7   N/A
MICHIGAN CITY 6N           77 75  230/  6/  6   N/A           1
ST. JOSEPH                 76 75  210/  4/  4 1015.5R         0
$$

ILZ025>027-034>036-040-047-049-050-058-095>099-230900-
WEST-CENTRAL ILLINOIS

CITY           SKY/WX    TMP DP  RH WIND       PRES   REMARKS
QUINCY         CLEAR     76  74  93 S3        29.98F
GALESBURG*     CLEAR     74  73  98 CALM      29.98F FOG
MACOMB*        FOG       73  72  98 CALM      30.00F VSB 1/2
JACKSONVILLE*  PTCLDY    75  73  92 S3        29.98F
PITTSFIELD*    CLEAR     75  75  99 CALM      30.00S FOG
$$

ILZ028>032-037-038-041>044-048-051>054-059>061-230900-
CENTRAL ILLINOIS

CITY           SKY/WX    TMP DP  RH WIND       PRES   REMARKS
PONTIAC        PTCLDY    75  75 100 CALM      30.00F
BLOOMINGTON    CLEAR     74  72  93 SW3       30.02F
DECATUR        PTCLDY    74  71  91 CALM      30.00F
PEORIA         CLEAR     77  75  93 CALM      29.99F
LACON*         CLEAR     74  73  95 CALM      29.98S
LINCOLN*       CLEAR     74  73  99 CALM      29.99F
SPRINGFIELD    CLEAR     76  73  91 CALM      30.00S
TAYLORVILLE    MOCLDY    73  72  99 CALM      30.00S
$$

ILZ033-039-045-046-055>057-062-063-230900-
EAST-CENTRAL ILLINOIS

CITY           SKY/WX    TMP DP  RH WIND       PRES   REMARKS
CHAMPAIGN      CLEAR     72  71  97 CALM      30.01F
MATTOON        CLOUDY    72  70  93 CALM      30.00F
PARIS*         PTCLDY    70  70 100 CALM      30.02S
$$

ILZ079-100>102-230900-
SOUTHWEST ILLINOIS

CITY           SKY/WX    TMP DP  RH WIND       PRES   REMARKS
ALTON          PTCLDY    71  71  98 CALM      30.00S
BELLEVILLE     PTCLDY    73  73 100 NW2       29.98S
CAHOKIA*       CLEAR     74  71  91 CALM      29.99S
SPARTA*        PTCLDY    73  73  97 CALM      30.01R
$$

ILZ064>066-069>071-074>076-080>082-084>086-088>090-092>094-230900-
SOUTH-CENTRAL ILLINOIS

CITY           SKY/WX    TMP DP  RH WIND       PRES   REMARKS
CARBONDALE     PTCLDY    73  71  93 CALM      29.99S FOG
CAIRO*         CLOUDY    75  75 100 CALM      29.97F FOG
EFFINGHAM*     CLEAR     72  72 100 CALM      30.01F
MARION         PTCLDY    73  73 100 CALM      29.99F FOG
MT. VERNON     PTCLDY    72  66  83 CALM      29.99F
CENTRALIA*     PTCLDY    72  72 100 CALM      29.99S
SALEM*         PTCLDY    73  71  95 CALM      29.99S FOG
METROPOLIS*      N/A     74  74  99 CALM      29.99F FOG
$$

ILZ067-068-072-073-078-083-087-091-230900-
SOUTHEAST ILLINOIS

CITY           SKY/WX    TMP DP  RH WIND       PRES   REMARKS
LAWRENCEVILLE  CLOUDY    73  73 100 CALM      29.99S FOG
FLORA*         PTCLDY    74  73  95 CALM      29.99S
FAIRFIELD*     PTCLDY    73  73 100 CALM      29.98F FOG
HARRISBURG*    FOG       77  77 100 CALM      29.99S VSB<1/4
ROBINSON*      FOG       69  69 100 CALM      30.01S VSB 3/4
CARMI*         FOG       75  75 100 CALM      29.98F VSB 1/4
$$

ABBREVIATIONS USED IN REMARKS
   TC - TEMPERATURE IN CELSIUS
  WCI - WIND CHILL INDEX
   HX - HEAT INDEX
  VSB - VISIBILITY
$$





USA.gov is the U.S. government's official web portal to all federal, state and local government web resources and services.